This is the latest recevied weather packets stored in our database for station/object KM7BEO. If no packets are shown the sender has not sent any weather packets the latest 10 day(s).
| Time | Temp. | Humidity | Pressure | Rain* | Wind** | Luminosity | Snow |
|---|---|---|---|---|---|---|---|
| 1778042308 | 10° C | 91% | 1015.1 hPa | 0 mm | - | 0 W/m² | - |
| 1778042005 | 10.56° C | 91% | 1015.2 hPa | 0 mm | - | 0 W/m² | - |
| 1778041704 | 10.56° C | 90% | 1015.1 hPa | 0 mm | - | 0 W/m² | - |
| 1778041402 | 10.56° C | 91% | 1015.2 hPa | 0 mm | - | 0 W/m² | - |
| 1778041101 | 10° C | 90% | 1014.9 hPa | 0 mm | - | 0 W/m² | - |
| 1778040797 | 10.56° C | 89% | 1014.8 hPa | 0 mm | - | 0 W/m² | - |
| 1778040497 | 10.56° C | 89% | 1014.8 hPa | 0 mm | - | 0 W/m² | - |
| 1778040192 | 10.56° C | 89% | 1014.9 hPa | 0 mm | - | 0 W/m² | - |
| 1778039888 | 10.56° C | 89% | 1014.6 hPa | 0 mm | - | 0 W/m² | - |
| 1778039585 | 10.56° C | 89% | 1014.6 hPa | 0 mm | - | 0 W/m² | - |
| 1778039283 | 11.11° C | 88% | 1014.4 hPa | 0 mm | - | 0 W/m² | - |
| 1778038980 | 11.11° C | 87% | 1014.5 hPa | 0 mm | - | 1 W/m² | - |
| 1778038676 | 11.11° C | 87% | 1014.5 hPa | 0 mm | - | 1 W/m² | - |
| 1778038373 | 11.67° C | 86% | 1014.6 hPa | 0 mm | - | 2 W/m² | - |
| 1778038071 | 11.67° C | 86% | 1014.5 hPa | 0 mm | - | 4 W/m² | - |
| 1778037767 | 11.67° C | 85% | 1014.5 hPa | 0 mm | - | 5 W/m² | - |
| 1778037464 | 11.67° C | 84% | 1014.5 hPa | 0 mm | - | 7 W/m² | - |
| 1778037161 | 12.22° C | 84% | 1014.6 hPa | 0 mm | - | 9 W/m² | - |
| 1778036859 | 12.22° C | 83% | 1014.6 hPa | 0 mm | - | 12 W/m² | - |
| 1778036557 | 12.78° C | 82% | 1014.5 hPa | 0 mm | - | 14 W/m² | - |
| 1778036253 | 12.78° C | 82% | 1014.4 hPa | 0 mm | - | 17 W/m² | - |
| 1778035950 | 12.78° C | 81% | 1014.6 hPa | 0 mm | - | 20 W/m² | - |
| 1778035647 | 12.78° C | 81% | 1014.5 hPa | 0 mm | - | 23 W/m² | - |
| 1778035343 | 12.78° C | 80% | 1014.5 hPa | 0 mm | - | 25 W/m² | - |
| 1778035040 | 13.33° C | 80% | 1014.5 hPa | 0 mm | - | 26 W/m² | - |
* Rain latest hour (hover to see other rain measurements)
** Current wind speed in m/s (hover to see current wind gust speed)